Time,TemperatureF,DewpointF,PressureIn,WindDirection,WindDirectionDegrees,WindSpeedMPH,WindSpeedGustMPH,Humidity,HourlyPrecipIn,Conditions,Clouds,dailyrainin,SolarRadiationWatts/m^2,SoftwareType,DateUTC
2013-03-01 00:02:00,14.0,1.0,-100.00,NE,53,5.0,10.0,56,0.00,,,0.00,0.000000,,2013-03-01 06:02:00,
2013-03-01 00:32:00,13.0,1.0,-100.00,ENE,69,4.0,12.0,57,0.00,,,0.00,0.000000,,2013-03-01 06:32:00,
2013-03-01 00:42:00,13.0,1.0,-100.00,ENE,69,4.0,12.0,57,0.00,,,0.00,0.000000,,2013-03-01 06:42:00,
2013-03-01 00:53:00,13.0,1.0,-100.00,ENE,69,4.0,12.0,57,0.00,,,0.00,0.000000,,2013-03-01 06:53:00,
2013-03-01 01:02:00,13.0,1.0,-100.00,ENE,69,4.0,12.0,57,0.00,,,0.00,0.000000,,2013-03-01 07:02:00,
2013-03-01 01:32:00,12.0,-1.0,-100.00,ENE,67,6.0,10.0,55,0.00,,,0.00,0.000000,,2013-03-01 07:32:00,
2013-03-01 01:42:00,12.0,-1.0,-100.00,ENE,67,6.0,10.0,55,0.00,,,0.00,0.000000,,2013-03-01 07:42:00,
2013-03-01 01:52:00,12.0,-1.0,-100.00,ENE,67,6.0,10.0,55,0.00,,,0.00,0.000000,,2013-03-01 07:52:00,
2013-03-01 02:02:00,12.0,-1.0,-100.00,ENE,67,6.0,10.0,55,0.00,,,0.00,0.000000,,2013-03-01 08:02:00,
2013-03-01 02:22:00,10.0,-2.0,-100.00,ENE,57,4.0,12.0,57,0.00,,,0.00,0.000000,,2013-03-01 08:22:00,
2013-03-01 02:32:00,10.0,-2.0,-100.00,ENE,57,4.0,12.0,57,0.00,,,0.00,0.000000,,2013-03-01 08:32:00,
2013-03-01 02:43:00,10.0,-2.0,-100.00,ENE,57,4.0,12.0,57,0.00,,,0.00,0.000000,,2013-03-01 08:43:00,
2013-03-01 02:53:00,10.0,-2.0,-100.00,ENE,57,4.0,12.0,57,0.00,,,0.00,0.000000,,2013-03-01 08:53:00,
2013-03-01 03:02:00,10.0,-2.0,-100.00,ENE,57,4.0,12.0,57,0.00,,,0.00,0.000000,,2013-03-01 09:02:00,
2013-03-01 03:22:00,9.0,-2.0,-100.00,ENE,59,4.0,10.0,59,0.00,,,0.00,0.000000,,2013-03-01 09:22:00,
2013-03-01 03:32:00,9.0,-2.0,-100.00,ENE,59,4.0,10.0,59,0.00,,,0.00,0.000000,,2013-03-01 09:32:00,
2013-03-01 03:42:00,9.0,-2.0,-100.00,ENE,59,4.0,10.0,59,0.00,,,0.00,0.000000,,2013-03-01 09:42:00,
2013-03-01 03:52:00,9.0,-2.0,-100.00,ENE,59,4.0,10.0,59,0.00,,,0.00,0.000000,,2013-03-01 09:52:00,
2013-03-01 04:02:00,9.0,-2.0,-100.00,ENE,59,4.0,10.0,59,0.00,,,0.00,0.000000,,2013-03-01 10:02:00,
2013-03-01 04:32:00,7.0,-4.0,-100.00,NE,53,5.0,10.0,59,0.00,,,0.00,0.000000,,2013-03-01 10:32:00,
2013-03-01 04:42:00,7.0,-4.0,-100.00,NE,53,5.0,10.0,59,0.00,,,0.00,0.000000,,2013-03-01 10:42:00,
2013-03-01 04:53:00,7.0,-4.0,-100.00,NE,53,5.0,10.0,59,0.00,,,0.00,0.000000,,2013-03-01 10:53:00,
2013-03-01 05:01:00,7.0,-4.0,-100.00,NE,53,5.0,10.0,59,0.00,,,0.00,0.000000,,2013-03-01 11:01:00,
2013-03-01 05:32:00,6.0,-5.0,-100.00,ENE,57,5.0,10.0,59,0.00,,,0.00,0.000000,,2013-03-01 11:32:00,
2013-03-01 05:42:00,6.0,-5.0,-100.00,ENE,57,5.0,10.0,59,0.00,,,0.00,0.000000,,2013-03-01 11:42:00,
2013-03-01 05:52:00,6.0,-5.0,-100.00,ENE,57,5.0,10.0,59,0.00,,,0.00,0.000000,,2013-03-01 11:52:00,
2013-03-01 06:01:00,6.0,-5.0,-100.00,ENE,57,5.0,10.0,59,0.00,,,0.00,0.000000,,2013-03-01 12:01:00,
2013-03-01 06:32:00,5.0,-6.0,-100.00,ENE,57,5.0,10.0,60,0.00,,,0.00,0.000000,,2013-03-01 12:32:00,
2013-03-01 06:42:00,5.0,-6.0,-100.00,ENE,57,5.0,10.0,60,0.00,,,0.00,0.000000,,2013-03-01 12:42:00,
2013-03-01 06:52:00,5.0,-6.0,-100.00,ENE,57,5.0,10.0,60,0.00,,,0.00,0.000000,,2013-03-01 12:52:00,
2013-03-01 07:01:00,5.0,-6.0,-100.00,ENE,57,5.0,10.0,60,0.00,,,0.00,0.000000,,2013-03-01 13:01:00,
2013-03-01 07:32:00,3.0,-8.0,-100.00,ENE,60,4.0,9.0,60,0.00,,,0.00,2.000000,,2013-03-01 13:32:00,
2013-03-01 07:42:00,3.0,-8.0,-100.00,ENE,60,4.0,9.0,60,0.00,,,0.00,2.000000,,2013-03-01 13:42:00,
2013-03-01 07:52:00,3.0,-8.0,-100.00,ENE,60,4.0,9.0,60,0.00,,,0.00,2.000000,,2013-03-01 13:52:00,
2013-03-01 08:01:00,3.0,-8.0,-100.00,ENE,60,4.0,9.0,60,0.00,,,0.00,2.000000,,2013-03-01 14:01:00,
2013-03-01 08:32:00,5.0,-8.0,-100.00,ENE,57,5.0,9.0,55,0.00,,,0.00,61.000000,,2013-03-01 14:32:00,
2013-03-01 08:42:00,5.0,-8.0,-100.00,ENE,57,5.0,9.0,55,0.00,,,0.00,61.000000,,2013-03-01 14:42:00,
2013-03-01 08:52:00,5.0,-8.0,-100.00,ENE,57,5.0,9.0,55,0.00,,,0.00,61.000000,,2013-03-01 14:52:00,
2013-03-01 09:01:00,5.0,-8.0,-100.00,ENE,57,5.0,9.0,55,0.00,,,0.00,61.000000,,2013-03-01 15:01:00,
2013-03-01 09:21:00,10.0,-8.0,-100.00,NE,55,4.0,10.0,44,0.00,,,0.00,199.000000,,2013-03-01 15:21:00,
2013-03-01 09:32:00,10.0,-8.0,-100.00,NE,55,4.0,10.0,44,0.00,,,0.00,199.000000,,2013-03-01 15:32:00,
2013-03-01 09:42:00,10.0,-8.0,-100.00,NE,55,4.0,10.0,44,0.00,,,0.00,199.000000,,2013-03-01 15:42:00,
2013-03-01 09:52:00,10.0,-8.0,-100.00,NE,55,4.0,10.0,44,0.00,,,0.00,199.000000,,2013-03-01 15:52:00,
2013-03-01 10:01:00,10.0,-8.0,-100.00,NE,55,4.0,10.0,44,0.00,,,0.00,199.000000,,2013-03-01 16:01:00,
2013-03-01 10:32:00,14.0,-9.0,-100.00,ENE,74,5.0,9.0,35,0.00,,,0.00,360.000000,,2013-03-01 16:32:00,
2013-03-01 10:42:00,14.0,-9.0,-100.00,ENE,74,5.0,9.0,35,0.00,,,0.00,360.000000,,2013-03-01 16:42:00,
2013-03-01 10:52:00,14.0,-9.0,-100.00,ENE,74,5.0,9.0,35,0.00,,,0.00,360.000000,,2013-03-01 16:52:00,
2013-03-01 11:01:00,14.0,-9.0,-100.00,ENE,74,5.0,9.0,35,0.00,,,0.00,360.000000,,2013-03-01 17:01:00,
2013-03-01 11:32:00,19.0,-12.0,-100.00,East,90,5.0,10.0,24,0.00,,,0.00,506.000000,,2013-03-01 17:32:00,
2013-03-01 11:42:00,19.0,-12.0,-100.00,East,90,5.0,10.0,24,0.00,,,0.00,506.000000,,2013-03-01 17:42:00,
2013-03-01 11:52:00,19.0,-12.0,-100.00,East,90,5.0,10.0,24,0.00,,,0.00,506.000000,,2013-03-01 17:52:00,
2013-03-01 12:01:00,19.0,-12.0,-100.00,East,90,5.0,10.0,24,0.00,,,0.00,506.000000,,2013-03-01 18:01:00,
2013-03-01 12:32:00,23.0,-13.0,-100.00,ENE,73,5.0,11.0,19,0.00,,,0.00,588.000000,,2013-03-01 18:32:00,
2013-03-01 12:42:00,23.0,-13.0,-100.00,ENE,73,5.0,11.0,19,0.00,,,0.00,588.000000,,2013-03-01 18:42:00,
2013-03-01 12:52:00,23.0,-13.0,-100.00,ENE,73,5.0,11.0,19,0.00,,,0.00,588.000000,,2013-03-01 18:52:00,
2013-03-01 13:01:00,23.0,-13.0,-100.00,ENE,73,5.0,11.0,19,0.00,,,0.00,588.000000,,2013-03-01 19:01:00,
2013-03-01 13:21:00,24.0,-13.0,-100.00,NE,55,5.0,10.0,18,0.00,,,0.00,487.000000,,2013-03-01 19:21:00,
2013-03-01 13:32:00,24.0,-13.0,-100.00,NE,55,5.0,10.0,18,0.00,,,0.00,487.000000,,2013-03-01 19:32:00,
2013-03-01 13:42:00,24.0,-13.0,-100.00,NE,55,5.0,10.0,18,0.00,,,0.00,487.000000,,2013-03-01 19:42:00,
2013-03-01 13:52:00,24.0,-13.0,-100.00,NE,55,5.0,10.0,18,0.00,,,0.00,487.000000,,2013-03-01 19:52:00,
2013-03-01 14:01:00,24.0,-13.0,-100.00,NE,55,5.0,10.0,18,0.00,,,0.00,487.000000,,2013-03-01 20:01:00,
2013-03-01 14:22:00,24.0,-13.0,-100.00,ENE,61,4.0,10.0,18,0.00,,,0.00,385.000000,,2013-03-01 20:22:00,
2013-03-01 14:32:00,24.0,-13.0,-100.00,ENE,61,4.0,10.0,18,0.00,,,0.00,385.000000,,2013-03-01 20:32:00,
2013-03-01 14:42:00,24.0,-13.0,-100.00,ENE,61,4.0,10.0,18,0.00,,,0.00,385.000000,,2013-03-01 20:42:00,
2013-03-01 14:52:00,24.0,-13.0,-100.00,ENE,61,4.0,10.0,18,0.00,,,0.00,385.000000,,2013-03-01 20:52:00,
2013-03-01 15:01:00,24.0,-13.0,-100.00,ENE,61,4.0,10.0,18,0.00,,,0.00,385.000000,,2013-03-01 21:01:00,
2013-03-01 15:22:00,25.0,-12.0,-100.00,NE,41,4.0,10.0,18,0.00,,,0.00,302.000000,,2013-03-01 21:22:00,
2013-03-01 15:32:00,25.0,-12.0,-100.00,NE,41,4.0,10.0,18,0.00,,,0.00,302.000000,,2013-03-01 21:32:00,
2013-03-01 15:42:00,25.0,-12.0,-100.00,NE,41,4.0,10.0,18,0.00,,,0.00,302.000000,,2013-03-01 21:42:00,
2013-03-01 15:52:00,25.0,-12.0,-100.00,NE,41,4.0,10.0,18,0.00,,,0.00,302.000000,,2013-03-01 21:52:00,
2013-03-01 16:01:00,25.0,-12.0,-100.00,NE,41,4.0,10.0,18,0.00,,,0.00,302.000000,,2013-03-01 22:01:00,
2013-03-01 16:32:00,24.0,-11.0,-100.00,NE,40,4.0,9.0,20,0.00,,,0.00,221.000000,,2013-03-01 22:32:00,
2013-03-01 16:42:00,24.0,-11.0,-100.00,NE,40,4.0,9.0,20,0.00,,,0.00,221.000000,,2013-03-01 22:42:00,
2013-03-01 16:52:00,24.0,-11.0,-100.00,NE,40,4.0,9.0,20,0.00,,,0.00,221.000000,,2013-03-01 22:52:00,
2013-03-01 17:01:00,24.0,-11.0,-100.00,NE,40,4.0,9.0,20,0.00,,,0.00,221.000000,,2013-03-01 23:01:00,
2013-03-01 17:32:00,24.0,-11.0,-100.00,NE,56,4.0,11.0,20,0.00,,,0.00,170.000000,,2013-03-01 23:32:00,
2013-03-01 17:42:00,24.0,-11.0,-100.00,NE,56,4.0,11.0,20,0.00,,,0.00,170.000000,,2013-03-01 23:42:00,
2013-03-01 17:52:00,24.0,-11.0,-100.00,NE,56,4.0,11.0,20,0.00,,,0.00,170.000000,,2013-03-01 23:52:00,
2013-03-01 18:02:00,24.0,-11.0,-100.00,NE,56,4.0,11.0,20,0.00,,,0.00,170.000000,,2013-03-02 00:02:00,
2013-03-01 18:32:00,19.0,-11.0,-100.00,NE,38,3.0,9.0,25,0.00,,,0.00,41.000000,,2013-03-02 00:32:00,
2013-03-01 18:42:00,19.0,-11.0,-100.00,NE,38,3.0,9.0,25,0.00,,,0.00,41.000000,,2013-03-02 00:42:00,
2013-03-01 18:52:00,19.0,-11.0,-100.00,NE,38,3.0,9.0,25,0.00,,,0.00,41.000000,,2013-03-02 00:52:00,
2013-03-01 19:01:00,19.0,-11.0,-100.00,NE,38,3.0,9.0,25,0.00,,,0.00,41.000000,,2013-03-02 01:01:00,
2013-03-01 19:32:00,16.0,-10.0,-100.00,NNE,30,3.0,7.0,30,0.00,,,0.00,0.000000,,2013-03-02 01:32:00,
2013-03-01 19:42:00,16.0,-10.0,-100.00,NNE,30,3.0,7.0,30,0.00,,,0.00,0.000000,,2013-03-02 01:42:00,
2013-03-01 19:52:00,16.0,-10.0,-100.00,NNE,30,3.0,7.0,30,0.00,,,0.00,0.000000,,2013-03-02 01:52:00,
2013-03-01 20:01:00,16.0,-10.0,-100.00,NNE,30,3.0,7.0,30,0.00,,,0.00,0.000000,,2013-03-02 02:01:00,
2013-03-01 20:32:00,13.0,-9.0,-100.00,NE,50,4.0,7.0,35,0.00,,,0.00,0.000000,,2013-03-02 02:32:00,
2013-03-01 20:42:00,13.0,-9.0,-100.00,NE,50,4.0,7.0,35,0.00,,,0.00,0.000000,,2013-03-02 02:42:00,
2013-03-01 20:52:00,13.0,-9.0,-100.00,NE,50,4.0,7.0,35,0.00,,,0.00,0.000000,,2013-03-02 02:52:00,
2013-03-01 21:01:00,13.0,-9.0,-100.00,NE,50,4.0,7.0,35,0.00,,,0.00,0.000000,,2013-03-02 03:01:00,
2013-03-01 21:32:00,11.0,-10.0,-100.00,ENE,57,4.0,6.0,37,0.00,,,0.00,0.000000,,2013-03-02 03:32:00,
2013-03-01 21:42:00,11.0,-10.0,-100.00,ENE,57,4.0,6.0,37,0.00,,,0.00,0.000000,,2013-03-02 03:42:00,
2013-03-01 21:52:00,11.0,-10.0,-100.00,ENE,57,4.0,6.0,37,0.00,,,0.00,0.000000,,2013-03-02 03:52:00,
2013-03-01 22:01:00,11.0,-10.0,-100.00,ENE,57,4.0,6.0,37,0.00,,,0.00,0.000000,,2013-03-02 04:01:00,
2013-03-01 22:32:00,10.0,-10.0,-100.00,NE,53,5.0,8.0,38,0.00,,,0.00,0.000000,,2013-03-02 04:32:00,
2013-03-01 22:42:00,10.0,-10.0,-100.00,NE,53,5.0,8.0,38,0.00,,,0.00,0.000000,,2013-03-02 04:42:00,
2013-03-01 22:52:00,10.0,-10.0,-100.00,NE,53,5.0,8.0,38,0.00,,,0.00,0.000000,,2013-03-02 04:52:00,
2013-03-01 23:01:00,10.0,-10.0,-100.00,NE,53,5.0,8.0,38,0.00,,,0.00,0.000000,,2013-03-02 05:01:00,
2013-03-01 23:23:00,8.0,-12.0,-100.00,ENE,71,5.0,7.0,38,0.00,,,0.00,0.000000,,2013-03-02 05:23:00,
2013-03-01 23:32:00,8.0,-12.0,-100.00,ENE,71,5.0,7.0,38,0.00,,,0.00,0.000000,,2013-03-02 05:32:00,
2013-03-01 23:42:00,8.0,-12.0,-100.00,ENE,71,5.0,7.0,38,0.00,,,0.00,0.000000,,2013-03-02 05:42:00,
2013-03-01 23:52:00,8.0,-12.0,-100.00,ENE,71,5.0,7.0,38,0.00,,,0.00,0.000000,,2013-03-02 05:52:00,